STARLINK-3387, 51125

Orbit data source: Space-Track

STARLINK-3387, 51125 is a payload satellite owned by SpaceX/Seattle (US) in LEO that was launched on Wed, 19 Jan 2022 UTC via an FALCON 9 launch vehicle from the Air Force Eastern Test Range (AFETR). Payload-class satellites include a variety of spacecraft equipped with specific instruments for various scientific and technological missions. These include communications satellites like Starlink; space stations such as the ISS; scientific satellites like the Hubble; Earth observation satellites from companies like Planet Labs, Umbra, and HawkEye 360; GPS; miniature CubeSats for education and research; and military/defense satellites.

Loading next visibility...
Identifier
51125, 2022-005X
Orbit
LEO
Country
Flag of USUS
Related business
Manufacturer
SpaceX/Seattle
Mission
Operational Commercial Communications
Bus & Motor
STARLINK, Unknown motor
Mass
297 kg wet, ~275 kg dry
Launch date (UTC)
2022-01-19 (4 years ago)
Launch vehicle
FALCON 9
Launch site
Air Force Eastern Test Range (AFETR)
Object type
Payload
Rocket body
Debris
Shape & HBR
Box + 1 Pan, 10.1 m
Radar Cross Section
13.562 m², Large (>1 m²)

Expand to show TLE details & history
Last TLE update: 11 hours ago

TLE from 11 hours ago
0 STARLINK-3387
1 51125U 22005X   26094.25303163 -.00000026  00000-0  16476-4 0  9994
2 51125  53.2160 184.3738 0001604  85.4250 274.6926 15.08845185232583
Epoch: 2026-04-04T06:04Z
TLE epoch observation values (Epoch: 2026-04-04T06:04:21.932Z)
Latitude
0.00001°
Longitude
-99.29304°
Altitude
540.534 km
Speed
7.593 km/s
True Right ascension
12h 17m 29s
True Declination
0° 00' 00"
Sunlit
Object was in full shadow at epoch
Visualization orbit readout
Latitude
Unknown
Longitude
Unknown
Altitude
Unknown
Speed
Unknown
Apparent Right ascension
Unknown
Apparent Declination
Unknown
Sunlit
N/A
Visualization observer readout
Local Sidereal Time
22:31:29
Azimuth
Unknown
Elevation
Unknown
Doppler factor
Unknown
Orbital elements
Apogee altitude
541.082 km
Perigee altitude
538.863 km
Semi-major axis
6,918.11 km
Eccentricity
0.00016
Inclination
53.216°
RAAN
184.3738°
Arg. of periapsis
85.425°
True anomaly
274.67428°
Mean anomaly
274.6926°
Eccentric anomaly
274.68344°
Mean motion
3.77192 °/min
Orbital period
95.44 mins
BSTAR
0.000016476
Loading maneuver chart data...
Computing Atmospheric mass density...
Loading historical data...
Loading historical data...
Loading historical data...
Loading historical data...
Loading historical data...
Loading historical data...
Loading historical data...

Documentation

Showing up to 5 results
|